{"data":{"norad_id":60386,"epoch":"2026-05-25T04:00:33.115680Z","epoch_age_seconds":60631,"freshness":"FRESH","line1":"1 60386U 24140H   26145.16704995  .00000087  00000+0  11520-3 0  9999","line2":"2 60386  88.9720 282.3109 0018574  88.0614 272.2664 13.51005484 89418","mean_motion":13.51005484,"eccentricity":0.0018574,"inclination_deg":88.972,"raan_deg":282.3109,"arg_perigee_deg":88.0614,"mean_anomaly_deg":272.2664,"bstar":0.0001152,"rev_number":8941,"period_min":106.5872801446,"perigee_km":1054.7299357533,"apogee_km":1082.3929310938,"semimajor_km":7446.6984334235,"source":"CELESTRAK","updated_at":"2026-05-25T13:38:02.040949Z"}}